,,,PA_Meas_PMT16A,,PR_Meas_QMR101_102,,RH_Meas_QMH101,,SR_Meas_QMS101,,TA_Meas_QMH101,,GenWind,,GenWind,
date,time,status,PA,status,PR,status,RH,status,SR,status,TA,status,DirAvg,status,SpdAvg,
2012-07-28, 00:00:04,VALID,1009.59,VALID,0,VALID,104,VALID,0,VALID,24.0058,VALID,73,VALID,0.0335938,
2012-07-28, 00:01:04,VALID,1009.61,VALID,0,VALID,104,VALID,0,VALID,23.9863,VALID,73,VALID,0,
2012-07-28, 00:02:04,VALID,1009.58,VALID,0,VALID,104,VALID,0,VALID,23.9668,VALID,73,VALID,0,
2012-07-28, 00:03:04,VALID,1009.58,VALID,0,VALID,104,VALID,0,VALID,23.9473,VALID,73,VALID,0,
2012-07-28, 00:04:04,VALID,1009.59,VALID,0,VALID,104,VALID,0,VALID,23.9863,VALID,73,VALID,0.400391,
2012-07-28, 00:05:04,VALID,1009.58,VALID,0,VALID,104,VALID,0,VALID,24.0058,VALID,73,VALID,0.2,
2012-07-28, 00:06:04,VALID,1009.57,VALID,0,VALID,104,VALID,0,VALID,23.9845,VALID,73,VALID,0,
2012-07-28, 00:07:04,VALID,1009.56,VALID,0,VALID,104,VALID,0.112112,VALID,24.0058,VALID,73,VALID,0.145703,
2012-07-28, 00:08:04,VALID,1009.54,VALID,0,VALID,104,VALID,0,VALID,23.9668,VALID,73,VALID,0,
2012-07-28, 00:09:04,VALID,1009.56,VALID,0,VALID,104,VALID,0,VALID,23.9278,VALID,73,VALID,0.0175781,
2012-07-28, 00:10:04,VALID,1009.55,VALID,0,VALID,104,VALID,0,VALID,23.8889,VALID,73,VALID,0,
2012-07-28, 00:11:04,VALID,1009.52,VALID,0,VALID,104,VALID,0,VALID,23.8499,VALID,73,VALID,0,
2012-07-28, 00:12:04,VALID,1009.52,VALID,0,VALID,104,VALID,0,VALID,23.8109,VALID,73,VALID,0,
2012-07-28, 00:13:04,VALID,1009.54,VALID,0,VALID,104,VALID,0,VALID,23.7914,VALID,73,VALID,0,
2012-07-28, 00:14:04,VALID,1009.54,VALID,0,VALID,104,VALID,0,VALID,23.772,VALID,73,VALID,0,
2012-07-28, 00:15:04,VALID,1009.53,VALID,0,VALID,104,VALID,0,VALID,23.7312,VALID,73,VALID,0,
2012-07-28, 00:16:04,VALID,1009.53,VALID,0,VALID,104,VALID,0,VALID,23.7135,VALID,73,VALID,0,
2012-07-28, 00:17:04,VALID,1009.5,VALID,0,VALID,104,VALID,0,VALID,23.694,VALID,73,VALID,0,
2012-07-28, 00:18:04,VALID,1009.49,VALID,0,VALID,104,VALID,0.112112,VALID,23.6727,VALID,73,VALID,0,
2012-07-28, 00:19:04,VALID,1009.46,VALID,0,VALID,104,VALID,0,VALID,23.6745,VALID,73,VALID,0,
2012-07-28, 00:20:04,VALID,1009.43,VALID,0,VALID,104,VALID,0,VALID,23.6745,VALID,73,VALID,0,
2012-07-28, 00:21:04,VALID,1009.42,VALID,0,VALID,104,VALID,0,VALID,23.6532,VALID,73,VALID,0,
2012-07-28, 00:22:04,VALID,1009.42,VALID,0,VALID,104,VALID,0,VALID,23.6745,VALID,73,VALID,0,
2012-07-28, 00:23:04,VALID,1009.4,VALID,0,VALID,104,VALID,0,VALID,23.6745,VALID,73,VALID,0,
2012-07-28, 00:24:04,VALID,1009.38,VALID,0,VALID,104,VALID,0,VALID,23.6532,VALID,73,VALID,0,
2012-07-28, 00:25:04,VALID,1009.4,VALID,0,VALID,104,VALID,0,VALID,23.655,VALID,73,VALID,0,
2012-07-28, 00:26:04,VALID,1009.39,VALID,0,VALID,104,VALID,0,VALID,23.6356,VALID,73,VALID,0,
2012-07-28, 00:27:04,VALID,1009.38,VALID,0,VALID,104,VALID,0,VALID,23.6356,VALID,73,VALID,0,
2012-07-28, 00:28:04,VALID,1009.38,VALID,0,VALID,104,VALID,0.112112,VALID,23.6161,VALID,73,VALID,0,
2012-07-28, 00:29:04,VALID,1009.36,VALID,0,VALID,104,VALID,0,VALID,23.6161,VALID,73,VALID,0,
2012-07-28, 00:30:04,VALID,1009.36,VALID,0,VALID,104,VALID,0,VALID,23.6161,VALID,73,VALID,0,
2012-07-28, 00:31:04,VALID,1009.35,VALID,0,VALID,104,VALID,0,VALID,23.6356,VALID,73,VALID,0,
2012-07-28, 00:32:04,VALID,1009.33,VALID,0,VALID,104,VALID,0,VALID,23.6143,VALID,73,VALID,0,
2012-07-28, 00:33:04,VALID,1009.33,VALID,0,VALID,104,VALID,0,VALID,23.6143,VALID,73,VALID,0,
2012-07-28, 00:34:04,VALID,1009.3,VALID,0,VALID,104,VALID,0,VALID,23.5948,VALID,73,VALID,0,
2012-07-28, 00:35:04,VALID,1009.31,VALID,0,VALID,104,VALID,0,VALID,23.6356,VALID,73,VALID,0,
2012-07-28, 00:36:04,VALID,1009.3,VALID,0,VALID,104,VALID,0,VALID,23.6161,VALID,73,VALID,0,
2012-07-28, 00:37:04,VALID,1009.29,VALID,0,VALID,104,VALID,0,VALID,23.5966,VALID,73,VALID,0,
2012-07-28, 00:38:04,VALID,1009.27,VALID,0,VALID,104,VALID,0,VALID,23.5966,VALID,73,VALID,0,
2012-07-28, 00:39:04,VALID,1009.28,VALID,0,VALID,104,VALID,0,VALID,23.5771,VALID,73,VALID,0,
2012-07-28, 00:40:04,VALID,1009.25,VALID,0,VALID,104,VALID,0.112112,VALID,23.5381,VALID,73,VALID,0,
2012-07-28, 00:41:04,VALID,1009.23,VALID,0,VALID,104,VALID,0.112112,VALID,23.5381,VALID,73,VALID,0,
2012-07-28, 00:42:04,VALID,1009.22,VALID,0,VALID,104,VALID,0,VALID,23.4992,VALID,73,VALID,0,
2012-07-28, 00:43:04,VALID,1009.21,VALID,0,VALID,104,VALID,0,VALID,23.4602,VALID,73,VALID,0,
2012-07-28, 00:44:04,VALID,1009.2,VALID,0,VALID,104,VALID,0,VALID,23.4017,VALID,73,VALID,0,
2012-07-28, 00:45:04,VALID,1009.19,VALID,0,VALID,104,VALID,0,VALID,23.4017,VALID,73,VALID,0,
2012-07-28, 00:46:04,VALID,1009.18,VALID,0,VALID,104,VALID,0,VALID,23.4212,VALID,73,VALID,0,
2012-07-28, 00:47:04,VALID,1009.18,VALID,0,VALID,104,VALID,0,VALID,23.4212,VALID,73,VALID,0,
2012-07-28, 00:48:04,VALID,1009.19,VALID,0,VALID,104,VALID,0,VALID,23.3823,VALID,73,VALID,0,
2012-07-28, 00:49:04,VALID,1009.19,VALID,0,VALID,104,VALID,0,VALID,23.3628,VALID,73,VALID,0,
2012-07-28, 00:50:04,VALID,1009.2,VALID,0,VALID,104,VALID,0,VALID,23.3026,VALID,73,VALID,0,
2012-07-28, 00:51:04,VALID,1009.2,VALID,0,VALID,104,VALID,0,VALID,23.3043,VALID,73,VALID,0,
2012-07-28, 00:52:04,VALID,1009.19,VALID,0,VALID,104,VALID,0,VALID,23.2636,VALID,73,VALID,0,
2012-07-28, 00:53:04,VALID,1009.19,VALID,0,VALID,104,VALID,0.112112,VALID,23.2654,VALID,73,VALID,0,
2012-07-28, 00:54:04,VALID,1009.22,VALID,0,VALID,104,VALID,0,VALID,23.2459,VALID,73,VALID,0,
2012-07-28, 00:55:04,VALID,1009.22,VALID,0,VALID,104,VALID,0,VALID,23.2459,VALID,73,VALID,0,
2012-07-28, 00:56:04,VALID,1009.2,VALID,0,VALID,104,VALID,0,VALID,23.2459,VALID,73,VALID,0,
2012-07-28, 00:57:04,VALID,1009.2,VALID,0,VALID,104,VALID,0,VALID,23.2264,VALID,73,VALID,0,
2012-07-28, 00:58:04,VALID,1009.22,VALID,0,VALID,104,VALID,0,VALID,23.2459,VALID,73,VALID,0,
2012-07-28, 00:59:04,VALID,1009.24,VALID,0,VALID,104,VALID,0,VALID,23.2459,VALID,73,VALID,0,
2012-07-28, 01:00:04,VALID,1009.22,VALID,0,VALID,104,VALID,0,VALID,23.2654,VALID,73,VALID,0,
2012-07-28, 01:01:04,VALID,1009.2,VALID,0,VALID,104,VALID,0,VALID,23.2459,VALID,73,VALID,0,
2012-07-28, 01:02:04,VALID,1009.2,VALID,0,VALID,104,VALID,0,VALID,23.2264,VALID,73,VALID,0,
2012-07-28, 01:03:04,VALID,1009.21,VALID,0,VALID,104,VALID,0,VALID,23.2264,VALID,73,VALID,0,
2012-07-28, 01:04:04,VALID,1009.18,VALID,0,VALID,104,VALID,0,VALID,23.2264,VALID,73,VALID,0,
2012-07-28, 01:05:04,VALID,1009.21,VALID,0,VALID,104,VALID,0,VALID,23.2264,VALID,73,VALID,0,
2012-07-28, 01:06:04,VALID,1009.18,VALID,0,VALID,104,VALID,0,VALID,23.2069,VALID,73,VALID,0,
2012-07-28, 01:07:04,VALID,1009.16,VALID,0,VALID,104,VALID,0,VALID,23.2069,VALID,73,VALID,0,
2012-07-28, 01:08:04,VALID,1009.16,VALID,0,VALID,104,VALID,0,VALID,23.2069,VALID,73,VALID,0,
2012-07-28, 01:09:04,VALID,1009.1,VALID,0,VALID,104,VALID,0,VALID,23.2264,VALID,73,VALID,0,
2012-07-28, 01:10:04,VALID,1009.08,VALID,0,VALID,104,VALID,0,VALID,23.2264,VALID,73,VALID,0,
2012-07-28, 01:11:04,VALID,1009.06,VALID,0,VALID,104,VALID,0,VALID,23.2264,VALID,73,VALID,0,
2012-07-28, 01:12:04,VALID,1009.05,VALID,0,VALID,104,VALID,0,VALID,23.2831,VALID,73,VALID,0,
2012-07-28, 01:13:04,VALID,1009.05,VALID,0,VALID,104,VALID,0.112112,VALID,23.3433,VALID,73,VALID,0,
2012-07-28, 01:14:04,VALID,1009.03,VALID,0,VALID,104,VALID,0,VALID,23.3628,VALID,73,VALID,0,
2012-07-28, 01:15:04,VALID,1009.02,VALID,0,VALID,104,VALID,0.112112,VALID,23.3823,VALID,73,VALID,0,
2012-07-28, 01:16:04,VALID,1009.03,VALID,0,VALID,104,VALID,0.112112,VALID,23.3823,VALID,73,VALID,0,
2012-07-28, 01:17:04,VALID,1009.02,VALID,0,VALID,104,VALID,0.112112,VALID,23.361,VALID,73,VALID,0,
2012-07-28, 01:18:04,VALID,1009.05,VALID,0,VALID,104,VALID,0.112112,VALID,23.384,VALID,73,VALID,0,
2012-07-28, 01:19:04,VALID,1009.04,VALID,0,VALID,104,VALID,0,VALID,23.3433,VALID,73,VALID,0,
2012-07-28, 01:20:04,VALID,1009.01,VALID,0,VALID,104,VALID,0.112112,VALID,23.322,VALID,73,VALID,0,
2012-07-28, 01:21:04,VALID,1009.02,VALID,0,VALID,104,VALID,0.112112,VALID,23.3238,VALID,73,VALID,0,
2012-07-28, 01:22:04,VALID,1009,VALID,0,VALID,104,VALID,0.112112,VALID,23.3026,VALID,73,VALID,0,
2012-07-28, 01:23:04,VALID,1008.97,VALID,0,VALID,104,VALID,0.112112,VALID,23.2636,VALID,73,VALID,0,
2012-07-28, 01:24:04,VALID,1008.94,VALID,0,VALID,104,VALID,0.112112,VALID,23.2654,VALID,73,VALID,0,
2012-07-28, 01:25:04,VALID,1008.92,VALID,0,VALID,104,VALID,0.112112,VALID,23.2459,VALID,73,VALID,0,
2012-07-28, 01:26:04,VALID,1008.92,VALID,0,VALID,104,VALID,0.112112,VALID,23.2246,VALID,73,VALID,0,
2012-07-28, 01:27:04,VALID,1008.93,VALID,0,VALID,104,VALID,0,VALID,23.2264,VALID,73,VALID,0,
2012-07-28, 01:28:04,VALID,1008.91,VALID,0,VALID,104,VALID,0.112112,VALID,23.2264,VALID,74,VALID,0,
2012-07-28, 01:29:04,VALID,1008.91,VALID,0,VALID,104,VALID,0.112112,VALID,23.1857,VALID,73,VALID,0,
2012-07-28, 01:30:04,VALID,1008.86,VALID,0,VALID,104,VALID,0.112112,VALID,23.2069,VALID,74,VALID,0,
2012-07-28, 01:31:04,VALID,1008.87,VALID,0,VALID,104,VALID,0.112112,VALID,23.2051,VALID,73,VALID,0,
2012-07-28, 01:32:04,VALID,1008.83,VALID,0,VALID,104,VALID,0.112112,VALID,23.2051,VALID,73,VALID,0,
2012-07-28, 01:33:04,VALID,1008.82,VALID,0,VALID,104,VALID,0.112112,VALID,23.1857,VALID,73,VALID,0,
2012-07-28, 01:34:04,VALID,1008.77,VALID,0,VALID,104,VALID,0.112112,VALID,23.1662,VALID,74,VALID,0,
2012-07-28, 01:35:04,VALID,1008.74,VALID,0,VALID,104,VALID,0.112112,VALID,23.1679,VALID,73,VALID,0,
2012-07-28, 01:36:04,VALID,1008.73,VALID,0,VALID,104,VALID,0,VALID,23.129,VALID,73,VALID,0,
2012-07-28, 01:37:04,VALID,1008.72,VALID,0,VALID,104,VALID,0.112112,VALID,23.0883,VALID,73,VALID,0,
2012-07-28, 01:38:04,VALID,1008.71,VALID,0,VALID,104,VALID,0.112112,VALID,23.0493,VALID,73,VALID,0,
2012-07-28, 01:39:04,VALID,1008.69,VALID,0,VALID,104,VALID,0.112112,VALID,23.0493,VALID,73,VALID,0,
2012-07-28, 01:40:04,VALID,1008.68,VALID,0,VALID,104,VALID,0.112112,VALID,23.0298,VALID,74,VALID,0,
2012-07-28, 01:41:04,VALID,1008.66,VALID,0,VALID,104,VALID,0.112112,VALID,23.0103,VALID,74,VALID,0,
2012-07-28, 01:42:04,VALID,1008.64,VALID,0,VALID,104,VALID,0.112112,VALID,22.9909,VALID,74,VALID,0,
2012-07-28, 01:43:04,VALID,1008.63,VALID,0,VALID,104,VALID,0.112112,VALID,23.0121,VALID,74,VALID,0,
2012-07-28, 01:44:04,VALID,1008.62,VALID,0,VALID,104,VALID,0.112112,VALID,23.0103,VALID,74,VALID,0,
2012-07-28, 01:45:04,VALID,1008.6,VALID,0,VALID,104,VALID,0.112112,VALID,23.0103,VALID,73,VALID,0,
2012-07-28, 01:46:04,VALID,1008.57,VALID,0,VALID,104,VALID,0.112112,VALID,23.0705,VALID,74,VALID,0,
2012-07-28, 01:47:04,VALID,1008.57,VALID,0,VALID,104,VALID,0.112112,VALID,23.0688,VALID,73,VALID,0,
2012-07-28, 01:48:04,VALID,1008.54,VALID,0,VALID,104,VALID,0.112112,VALID,23.09,VALID,74,VALID,0,
2012-07-28, 01:49:04,VALID,1008.55,VALID,0,VALID,104,VALID,0,VALID,23.0298,VALID,74,VALID,0,
2012-07-28, 01:50:04,VALID,1008.53,VALID,0,VALID,104,VALID,0.112112,VALID,23.0121,VALID,74,VALID,0,
2012-07-28, 01:51:04,VALID,1008.52,VALID,0,VALID,104,VALID,0.112112,VALID,23.0103,VALID,73,VALID,0,
2012-07-28, 01:52:04,VALID,1008.51,VALID,0,VALID,104,VALID,0.112112,VALID,22.9731,VALID,74,VALID,0,
2012-07-28, 01:53:04,VALID,1008.48,VALID,0,VALID,104,VALID,0.112112,VALID,22.9324,VALID,74,VALID,0,
2012-07-28, 01:54:04,VALID,1008.48,VALID,0,VALID,104,VALID,0.112112,VALID,22.9342,VALID,74,VALID,0,
2012-07-28, 01:55:04,VALID,1008.5,VALID,0,VALID,104,VALID,0.112112,VALID,22.8935,VALID,74,VALID,0,
2012-07-28, 01:56:04,VALID,1008.47,VALID,0,VALID,104,VALID,0.112112,VALID,22.9324,VALID,74,VALID,0,
2012-07-28, 01:57:04,VALID,1008.46,VALID,0,VALID,104,VALID,0.112112,VALID,22.9731,VALID,73,VALID,0,
2012-07-28, 01:58:04,VALID,1008.45,VALID,0,VALID,104,VALID,0.112112,VALID,22.9714,VALID,74,VALID,0,
2012-07-28, 01:59:04,VALID,1008.45,VALID,0,VALID,104,VALID,0.112112,VALID,22.9714,VALID,73,VALID,0,
2012-07-28, 02:00:04,VALID,1008.44,VALID,0,VALID,104,VALID,0.112112,VALID,22.9714,VALID,74,VALID,0,
2012-07-28, 02:01:04,VALID,1008.48,VALID,0,VALID,104,VALID,0.112112,VALID,22.9926,VALID,74,VALID,0,
2012-07-28, 02:02:04,VALID,1008.44,VALID,0,VALID,104,VALID,0.112112,VALID,22.9714,VALID,74,VALID,0,
2012-07-28, 02:03:04,VALID,1008.43,VALID,0,VALID,104,VALID,0.112112,VALID,22.9714,VALID,74,VALID,0,
2012-07-28, 02:04:04,VALID,1008.44,VALID,0,VALID,104,VALID,0.112112,VALID,23.0121,VALID,74,VALID,0,
2012-07-28, 02:05:04,VALID,1008.44,VALID,0,VALID,104,VALID,0.112112,VALID,23.0316,VALID,74,VALID,0,
2012-07-28, 02:06:04,VALID,1008.43,VALID,0,VALID,104,VALID,0.112112,VALID,23.0316,VALID,74,VALID,0,
2012-07-28, 02:07:04,VALID,1008.42,VALID,0,VALID,104,VALID,0.112112,VALID,23.0103,VALID,74,VALID,0,
2012-07-28, 02:08:04,VALID,1008.43,VALID,0,VALID,104,VALID,0,VALID,22.9926,VALID,74,VALID,0,
2012-07-28, 02:09:04,VALID,1008.42,VALID,0,VALID,104,VALID,0.112112,VALID,22.9926,VALID,74,VALID,0,
2012-07-28, 02:10:04,VALID,1008.41,VALID,0,VALID,104,VALID,0.112112,VALID,22.9731,VALID,74,VALID,0,
2012-07-28, 02:11:04,VALID,1008.41,VALID,0,VALID,104,VALID,0.112112,VALID,22.9536,VALID,73,VALID,0,
2012-07-28, 02:12:04,VALID,1008.38,VALID,0,VALID,104,VALID,0.112112,VALID,22.9536,VALID,74,VALID,0,
2012-07-28, 02:13:04,VALID,1008.36,VALID,0,VALID,104,VALID,0.112112,VALID,22.9324,VALID,74,VALID,0,
2012-07-28, 02:14:04,VALID,1008.35,VALID,0,VALID,104,VALID,0.112112,VALID,22.9536,VALID,73,VALID,0,
2012-07-28, 02:15:04,VALID,1008.35,VALID,0,VALID,104,VALID,0,VALID,22.9342,VALID,74,VALID,0,
2012-07-28, 02:16:04,VALID,1008.34,VALID,0,VALID,104,VALID,0,VALID,22.9129,VALID,74,VALID,0,
2012-07-28, 02:17:04,VALID,1008.31,VALID,0,VALID,104,VALID,0,VALID,22.9342,VALID,74,VALID,0,
2012-07-28, 02:18:04,VALID,1008.32,VALID,0,VALID,104,VALID,0,VALID,22.9342,VALID,74,VALID,0,
2012-07-28, 02:19:04,VALID,1008.3,VALID,0,VALID,104,VALID,0,VALID,22.874,VALID,74,VALID,0,
2012-07-28, 02:20:04,VALID,1008.33,VALID,0,VALID,104,VALID,0,VALID,22.8545,VALID,74,VALID,0,
2012-07-28, 02:21:04,VALID,1008.28,VALID,0,VALID,104,VALID,0,VALID,22.8562,VALID,74,VALID,0,
2012-07-28, 02:22:04,VALID,1008.32,VALID,0,VALID,104,VALID,0,VALID,22.835,VALID,74,VALID,0,
2012-07-28, 02:23:04,VALID,1008.34,VALID,0,VALID,104,VALID,0,VALID,22.8562,VALID,74,VALID,0,
2012-07-28, 02:24:04,VALID,1008.33,VALID,0,VALID,104,VALID,0,VALID,22.8368,VALID,74,VALID,0,
2012-07-28, 02:25:04,VALID,1008.32,VALID,0,VALID,104,VALID,0,VALID,22.7978,VALID,73,VALID,0,
2012-07-28, 02:26:04,VALID,1008.34,VALID,0,VALID,104,VALID,0,VALID,22.7783,VALID,74,VALID,0,
2012-07-28, 02:27:04,VALID,1008.31,VALID,0,VALID,104,VALID,0.112112,VALID,22.7376,VALID,73,VALID,0,
2012-07-28, 02:28:04,VALID,1008.31,VALID,0,VALID,104,VALID,0,VALID,22.7588,VALID,74,VALID,0,
2012-07-28, 02:29:04,VALID,1008.31,VALID,0,VALID,104,VALID,0,VALID,22.7004,VALID,74,VALID,0,
2012-07-28, 02:30:04,VALID,1008.32,VALID,0,VALID,104,VALID,0.112112,VALID,22.7004,VALID,74,VALID,0,
2012-07-28, 02:31:04,VALID,1008.3,VALID,0,VALID,104,VALID,0,VALID,22.6809,VALID,74,VALID,0,
2012-07-28, 02:32:04,VALID,1008.29,VALID,0,VALID,104,VALID,0,VALID,22.6597,VALID,74,VALID,0,
2012-07-28, 02:33:04,VALID,1008.29,VALID,0,VALID,104,VALID,0,VALID,22.6809,VALID,74,VALID,0,
2012-07-28, 02:34:04,VALID,1008.27,VALID,0,VALID,104,VALID,0,VALID,22.6614,VALID,73,VALID,0,
2012-07-28, 02:35:04,VALID,1008.27,VALID,0,VALID,104,VALID,0,VALID,22.6208,VALID,74,VALID,0,
2012-07-28, 02:36:04,VALID,1008.24,VALID,0,VALID,104,VALID,0,VALID,22.642,VALID,74,VALID,0,
2012-07-28, 02:37:04,VALID,1008.27,VALID,0,VALID,104,VALID,0,VALID,22.6225,VALID,74,VALID,0,
2012-07-28, 02:38:04,VALID,1008.22,VALID,0,VALID,104,VALID,0,VALID,22.603,VALID,74,VALID,0,
2012-07-28, 02:39:04,VALID,1008.24,VALID,0,VALID,104,VALID,0,VALID,22.5818,VALID,74,VALID,0,
2012-07-28, 02:40:04,VALID,1008.25,VALID,0,VALID,104,VALID,0,VALID,22.603,VALID,74,VALID,0,
2012-07-28, 02:41:04,VALID,1008.22,VALID,0,VALID,104,VALID,0,VALID,22.5623,VALID,74,VALID,0,
2012-07-28, 02:42:04,VALID,1008.22,VALID,0,VALID,104,VALID,0,VALID,22.5623,VALID,74,VALID,0,
2012-07-28, 02:43:04,VALID,1008.25,VALID,0,VALID,104,VALID,0,VALID,22.5835,VALID,74,VALID,0,
2012-07-28, 02:44:04,VALID,1008.21,VALID,0,VALID,104,VALID,0,VALID,22.5835,VALID,74,VALID,0,
2012-07-28, 02:45:04,VALID,1008.21,VALID,0,VALID,104,VALID,0.112112,VALID,22.5835,VALID,74,VALID,0,
2012-07-28, 02:46:04,VALID,1008.24,VALID,0,VALID,104,VALID,0,VALID,22.5818,VALID,74,VALID,0,
2012-07-28, 02:47:04,VALID,1008.26,VALID,0,VALID,104,VALID,0.112112,VALID,22.6013,VALID,74,VALID,0,
2012-07-28, 02:48:04,VALID,1008.28,VALID,0,VALID,104,VALID,0,VALID,22.5818,VALID,73,VALID,0,
2012-07-28, 02:49:04,VALID,1008.3,VALID,0,VALID,104,VALID,0,VALID,22.5835,VALID,74,VALID,0,
2012-07-28, 02:50:04,VALID,1008.31,VALID,0,VALID,104,VALID,0,VALID,22.5835,VALID,74,VALID,0,
2012-07-28, 02:51:04,VALID,1008.31,VALID,0,VALID,104,VALID,0,VALID,22.5429,VALID,74,VALID,0,
2012-07-28, 02:52:04,VALID,1008.31,VALID,0,VALID,104,VALID,0,VALID,22.5623,VALID,73,VALID,0,
2012-07-28, 02:53:04,VALID,1008.3,VALID,0,VALID,104,VALID,0,VALID,22.5835,VALID,73,VALID,0,
2012-07-28, 02:54:04,VALID,1008.29,VALID,0,VALID,104,VALID,0,VALID,22.564,VALID,73,VALID,0,
2012-07-28, 02:55:04,VALID,1008.29,VALID,0,VALID,104,VALID,0,VALID,22.5429,VALID,73,VALID,0,
2012-07-28, 02:56:04,VALID,1008.27,VALID,0,VALID,104,VALID,0,VALID,22.564,VALID,73,VALID,0,
2012-07-28, 02:57:04,VALID,1008.31,VALID,0,VALID,104,VALID,0,VALID,22.5234,VALID,73,VALID,0,
2012-07-28, 02:58:04,VALID,1008.3,VALID,0,VALID,104,VALID,0,VALID,22.564,VALID,73,VALID,0,
2012-07-28, 02:59:04,VALID,1008.31,VALID,0,VALID,104,VALID,0,VALID,22.5623,VALID,73,VALID,0,
2012-07-28, 03:00:04,VALID,1008.33,VALID,0,VALID,104,VALID,0.112112,VALID,22.603,VALID,73,VALID,0,
2012-07-28, 03:01:04,VALID,1008.35,VALID,0,VALID,104,VALID,0.112112,VALID,22.5835,VALID,73,VALID,0,
2012-07-28, 03:02:04,VALID,1008.36,VALID,0,VALID,104,VALID,0.112112,VALID,22.5623,VALID,73,VALID,0,
2012-07-28, 03:03:04,VALID,1008.35,VALID,0,VALID,104,VALID,0,VALID,22.5429,VALID,73,VALID,0,
2012-07-28, 03:04:04,VALID,1008.38,VALID,0,VALID,104,VALID,0.112112,VALID,22.5446,VALID,73,VALID,0,
2012-07-28, 03:05:04,VALID,1008.37,VALID,0,VALID,104,VALID,0,VALID,22.5234,VALID,73,VALID,0,
2012-07-28, 03:06:04,VALID,1008.37,VALID,0,VALID,104,VALID,0.112112,VALID,22.4844,VALID,73,VALID,0,
2012-07-28, 03:07:04,VALID,1008.39,VALID,0,VALID,104,VALID,0.112112,VALID,22.465,VALID,73,VALID,0,
2012-07-28, 03:08:04,VALID,1008.37,VALID,0,VALID,104,VALID,0.112112,VALID,22.4455,VALID,73,VALID,0,
2012-07-28, 03:09:04,VALID,1008.37,VALID,0,VALID,104,VALID,0.112112,VALID,22.4455,VALID,73,VALID,0,
2012-07-28, 03:10:04,VALID,1008.37,VALID,0,VALID,104,VALID,0,VALID,22.426,VALID,73,VALID,0,
2012-07-28, 03:11:04,VALID,1008.35,VALID,0,VALID,104,VALID,0.112112,VALID,22.387,VALID,73,VALID,0,
2012-07-28, 03:12:04,VALID,1008.36,VALID,0,VALID,104,VALID,0.112112,VALID,22.4065,VALID,73,VALID,0,
2012-07-28, 03:13:04,VALID,1008.35,VALID,0,VALID,104,VALID,0.112112,VALID,22.3887,VALID,73,VALID,0,
2012-07-28, 03:14:04,VALID,1008.31,VALID,0,VALID,104,VALID,0.112112,VALID,22.3676,VALID,73,VALID,0,
2012-07-28, 03:15:04,VALID,1008.3,VALID,0,VALID,104,VALID,0.112112,VALID,22.3693,VALID,73,VALID,0,
2012-07-28, 03:16:04,VALID,1008.31,VALID,0,VALID,104,VALID,0.112112,VALID,22.3286,VALID,73,VALID,0,
2012-07-28, 03:17:04,VALID,1008.29,VALID,0,VALID,104,VALID,0,VALID,22.3091,VALID,73,VALID,0,
2012-07-28, 03:18:04,VALID,1008.32,VALID,0,VALID,104,VALID,0,VALID,22.3286,VALID,73,VALID,0,
2012-07-28, 03:19:04,VALID,1008.32,VALID,0,VALID,104,VALID,0.112112,VALID,22.3481,VALID,73,VALID,0,
2012-07-28, 03:20:04,VALID,1008.31,VALID,0,VALID,104,VALID,0,VALID,22.3481,VALID,73,VALID,0,
2012-07-28, 03:21:04,VALID,1008.33,VALID,0,VALID,104,VALID,0.112112,VALID,22.3481,VALID,73,VALID,0,
2012-07-28, 03:22:04,VALID,1008.32,VALID,0,VALID,104,VALID,0,VALID,22.3091,VALID,73,VALID,0,
2012-07-28, 03:23:04,VALID,1008.32,VALID,0,VALID,104,VALID,0.112112,VALID,22.2897,VALID,73,VALID,0,
2012-07-28, 03:24:04,VALID,1008.29,VALID,0,VALID,104,VALID,0,VALID,22.3108,VALID,73,VALID,0,
2012-07-28, 03:25:04,VALID,1008.34,VALID,0,VALID,104,VALID,0.112112,VALID,22.2897,VALID,73,VALID,0,
2012-07-28, 03:26:04,VALID,1008.31,VALID,0,VALID,104,VALID,0.112112,VALID,22.2507,VALID,73,VALID,0,
2012-07-28, 03:27:04,VALID,1008.32,VALID,0,VALID,104,VALID,0.112112,VALID,22.2312,VALID,73,VALID,0,
2012-07-28, 03:28:04,VALID,1008.34,VALID,0,VALID,104,VALID,0.112112,VALID,22.2118,VALID,73,VALID,0,
2012-07-28, 03:29:04,VALID,1008.3,VALID,0,VALID,104,VALID,0.112112,VALID,22.1923,VALID,73,VALID,0,
2012-07-28, 03:30:04,VALID,1008.3,VALID,0,VALID,104,VALID,0,VALID,22.1745,VALID,73,VALID,0,
2012-07-28, 03:31:04,VALID,1008.3,VALID,0,VALID,104,VALID,0,VALID,22.1745,VALID,73,VALID,0,
2012-07-28, 03:32:04,VALID,1008.28,VALID,0,VALID,104,VALID,0,VALID,22.155,VALID,73,VALID,0,
2012-07-28, 03:33:04,VALID,1008.28,VALID,0,VALID,104,VALID,0,VALID,22.1355,VALID,73,VALID,0,
2012-07-28, 03:34:04,VALID,1008.26,VALID,0,VALID,104,VALID,0,VALID,22.155,VALID,73,VALID,0,
2012-07-28, 03:35:04,VALID,1008.23,VALID,0,VALID,104,VALID,0,VALID,22.1745,VALID,73,VALID,0,
2012-07-28, 03:36:04,VALID,1008.26,VALID,0,VALID,104,VALID,0,VALID,22.194,VALID,73,VALID,0,
2012-07-28, 03:37:04,VALID,1008.25,VALID,0,VALID,104,VALID,0,VALID,22.194,VALID,73,VALID,0,
2012-07-28, 03:38:04,VALID,1008.22,VALID,0,VALID,104,VALID,0,VALID,22.2524,VALID,73,VALID,0,
2012-07-28, 03:39:04,VALID,1008.2,VALID,0,VALID,104,VALID,0,VALID,22.2719,VALID,73,VALID,0,
2012-07-28, 03:40:04,VALID,1008.22,VALID,0,VALID,104,VALID,0,VALID,22.3125,VALID,73,VALID,0,
2012-07-28, 03:41:04,VALID,1008.23,VALID,0,VALID,104,VALID,0,VALID,22.2914,VALID,73,VALID,0,
2012-07-28, 03:42:04,VALID,1008.2,VALID,0,VALID,104,VALID,0,VALID,22.3108,VALID,73,VALID,0,
2012-07-28, 03:43:04,VALID,1008.21,VALID,0,VALID,104,VALID,0,VALID,22.3303,VALID,73,VALID,0,
2012-07-28, 03:44:04,VALID,1008.22,VALID,0,VALID,104,VALID,0,VALID,22.3303,VALID,73,VALID,0.231641,
2012-07-28, 03:45:04,VALID,1008.22,VALID,0,VALID,104,VALID,0.112112,VALID,22.3481,VALID,73,VALID,0.000390625,
2012-07-28, 03:46:04,VALID,1008.23,VALID,0,VALID,104,VALID,0.112112,VALID,22.3481,VALID,73,VALID,0.499609,
2012-07-28, 03:47:04,VALID,1008.22,VALID,0,VALID,104,VALID,0.112112,VALID,22.3286,VALID,73,VALID,0,
2012-07-28, 03:48:04,VALID,1008.22,VALID,0,VALID,104,VALID,0.112112,VALID,22.2897,VALID,73,VALID,0,
2012-07-28, 03:49:04,VALID,1008.21,VALID,0,VALID,104,VALID,0.112112,VALID,22.2914,VALID,73,VALID,0,
2012-07-28, 03:50:04,VALID,1008.24,VALID,0,VALID,104,VALID,0.112112,VALID,22.2702,VALID,73,VALID,0,
2012-07-28, 03:51:04,VALID,1008.25,VALID,0,VALID,104,VALID,0.112112,VALID,22.2507,VALID,73,VALID,0,
2012-07-28, 03:52:04,VALID,1008.21,VALID,0,VALID,104,VALID,0.112112,VALID,22.2312,VALID,73,VALID,0,
2012-07-28, 03:53:04,VALID,1008.24,VALID,0,VALID,104,VALID,0.112112,VALID,22.2312,VALID,73,VALID,0,
2012-07-28, 03:54:04,VALID,1008.23,VALID,0,VALID,104,VALID,0.112112,VALID,22.2312,VALID,73,VALID,0,
2012-07-28, 03:55:04,VALID,1008.22,VALID,0,VALID,104,VALID,0.112112,VALID,22.2118,VALID,73,VALID,0,
2012-07-28, 03:56:04,VALID,1008.24,VALID,0,VALID,104,VALID,0.112112,VALID,22.2118,VALID,73,VALID,0,
2012-07-28, 03:57:04,VALID,1008.21,VALID,0,VALID,104,VALID,0.112112,VALID,22.2118,VALID,73,VALID,0,
2012-07-28, 03:58:04,VALID,1008.22,VALID,0,VALID,104,VALID,0.112112,VALID,22.1923,VALID,73,VALID,0,
2012-07-28, 03:59:04,VALID,1008.22,VALID,0,VALID,104,VALID,0,VALID,22.194,VALID,73,VALID,0,
2012-07-28, 04:00:04,VALID,1008.22,VALID,0,VALID,104,VALID,0.112112,VALID,22.1728,VALID,73,VALID,0,
2012-07-28, 04:01:04,VALID,1008.2,VALID,0,VALID,104,VALID,0.112112,VALID,22.1745,VALID,73,VALID,0,
2012-07-28, 04:02:04,VALID,1008.21,VALID,0,VALID,104,VALID,0.112112,VALID,22.1339,VALID,73,VALID,0,
2012-07-28, 04:03:04,VALID,1008.26,VALID,0,VALID,104,VALID,0.112112,VALID,22.1355,VALID,73,VALID,0,
2012-07-28, 04:04:04,VALID,1008.25,VALID,0,VALID,104,VALID,0.112112,VALID,22.0949,VALID,73,VALID,0,